, AK

(GMT )
Denali Park

Weather History for PAIN - June, 2019

Change the Weather History Date:

Tuesday, June 11, 2019

  Actual Average Record
Temperature  
Mean Temperature 52 °F -  
Max Temperature 64 °F 63 °F 83 °F (1957)
Min Temperature 41 °F 38 °F 29 °F (1963)
Degree Days  
Heating Degree Days 12    
Growing Degree Days 2 (Base 50)    
Moisture  
Dew Point 42 °F    
Average Humidity 83    
Maximum Humidity 100    
Minimum Humidity 37    
Precipitation  
Precipitation 0.02 in - - ()
Sea Level Pressure  
Sea Level Pressure 29.92 in    
Wind  
Wind Speed 2 mph (WSW)    
Max Wind Speed 9 mph    
Max Gust Speed -    
Visibility 6 miles    
Events Fog , Rain    
Averages and records for this station are not official NWS values.
T = Trace of Precipitation, MM = Missing Value Source: NWS Daily Summary

Daily Weather History Graph

Daily Weather History Graph

Search for Another Location

Airport or City:

Astronomy

Jun. 11, 2019 Rise Set
Actual Time 3:39 AM AKDT 12:12 AM AKDT
Civil Twilight Sun does not set Sun does not set
Nautical Twilight Sun does not set Sun does not set
Astronomical Twilight Sun does not set Sun does not set
Moon 3:38 PM AKDT (6/11) 3:25 AM AKDT (6/11)
Length of Visible Light 24h 00m
Length of Day
20h 33m
Waxing Gibbous, 68% of the Moon is Illuminated
Jun 11
Waxing Gibbous
Jun 17
Full
Jun 25
Last Quarter
Jul 2
New
Jul 9
First Quarter

Hourly Weather History & Observations

Time (AKDT) Temp. Windchill Dew Point Humidity Pressure Visibility Wind Dir Wind Speed Gust Speed Precip Events Conditions
12:56 AM 45.0 °F 42.6 °F 43.0 °F 93% 30.00 in 10.0 mi SW 4.6 mph - N/A   Scattered Clouds
1:56 AM 43.0 °F 40.3 °F 41.0 °F 93% 29.99 in 10.0 mi SSW 4.6 mph - N/A   Scattered Clouds
2:56 AM 42.1 °F 40.2 °F 39.9 °F 92% 30.00 in 10.0 mi SSW 3.5 mph - N/A   Partly Cloudy
3:52 AM 41.0 °F - 39.2 °F 93% 29.94 in 10.0 mi Calm Calm - N/A   Overcast
3:56 AM 41.0 °F - 39.9 °F 96% 29.99 in 10.0 mi Calm Calm - N/A   Overcast
4:16 AM 41.0 °F - 39.2 °F 93% 29.93 in 10.0 mi Calm Calm - N/A   Overcast
4:46 AM 41.0 °F - 39.2 °F 93% 29.93 in 1.8 mi Calm Calm - N/A   Overcast
4:49 AM 41.0 °F 39.0 °F 39.2 °F 93% 29.93 in 0.8 mi South 3.5 mph - N/A   Overcast
4:54 AM 41.0 °F - 41.0 °F 100% 29.93 in 0.2 mi Calm Calm - N/A Fog Fog
4:56 AM 41.0 °F - 41.0 °F 100% 29.98 in 0.2 mi Calm Calm - N/A Fog Fog
5:01 AM 41.0 °F - 41.0 °F 100% 29.92 in 0.8 mi Calm Calm - N/A   Overcast
5:03 AM 41.0 °F - 41.0 °F 100% 29.92 in 1.0 mi Calm Calm - N/A   Overcast
5:05 AM 41.0 °F - 41.0 °F 100% 29.92 in 2.5 mi Calm Calm - 0.00 in Rain Light Rain
5:11 AM 41.0 °F - 41.0 °F 100% 29.92 in 6.0 mi Calm Calm - 0.00 in Rain Light Rain
5:15 AM 41.0 °F - 41.0 °F 100% 29.92 in 1.5 mi Calm Calm - 0.00 in Rain Light Rain
5:36 AM 41.0 °F - 41.0 °F 100% 29.92 in 2.0 mi Calm Calm - 0.00 in   Overcast
5:50 AM 42.8 °F - 41.0 °F 93% 29.92 in 3.0 mi Calm Calm - 0.00 in   Overcast
5:53 AM 42.8 °F - 41.0 °F 93% 29.92 in 1.8 mi Calm Calm - 0.00 in   Overcast
5:56 AM 42.1 °F - 41.0 °F 96% 29.98 in 1.2 mi Calm Calm - 0.00 in   Overcast
6:08 AM 42.8 °F - 41.0 °F 93% 29.92 in 2.5 mi Calm Calm - N/A   Overcast
6:18 AM 42.8 °F - 41.0 °F 93% 29.92 in 1.0 mi Calm Calm - N/A   Overcast
6:21 AM 42.8 °F - 41.0 °F 93% 29.92 in 0.5 mi Calm Calm - N/A Fog Fog
6:30 AM 42.8 °F - 42.8 °F 100% 29.92 in 1.0 mi Calm Calm - N/A   Overcast
6:34 AM 42.8 °F - 42.8 °F 100% 29.92 in 2.0 mi Calm Calm - N/A   Overcast
6:43 AM 42.8 °F - 42.8 °F 100% 29.91 in 10.0 mi Calm Calm - N/A   Overcast
7:56 AM 45.0 °F - 44.1 °F 97% 29.96 in 10.0 mi Calm Calm - N/A   Overcast
8:56 AM 48.0 °F - 45.0 °F 89% 29.95 in 10.0 mi Calm Calm - 0.00 in   Overcast
9:56 AM 52.0 °F - 46.0 °F 80% 29.94 in 10.0 mi Calm Calm - 0.00 in Rain Light Rain
10:56 AM 54.0 °F - 48.0 °F 80% 29.93 in 10.0 mi Calm Calm - 0.02 in Rain Light Rain
11:56 AM 55.9 °F - 48.9 °F 77% 29.91 in 10.0 mi Calm Calm - 0.00 in   Partly Cloudy
12:56 PM 62.1 °F - 46.0 °F 56% 29.89 in 10.0 mi Variable 3.5 mph - N/A   Mostly Cloudy
1:56 PM 59.0 °F - 42.1 °F 53% 29.89 in 10.0 mi WSW 3.5 mph - N/A   Mostly Cloudy
2:56 PM 57.0 °F - 48.0 °F 72% 29.89 in 10.0 mi WSW 6.9 mph - 0.00 in   Overcast
3:56 PM 64.0 °F - 42.1 °F 45% 29.87 in 10.0 mi Calm Calm - N/A   Clear
4:56 PM 61.0 °F - 39.9 °F 46% 29.87 in 10.0 mi Calm Calm - N/A   Overcast
5:56 PM 61.0 °F - 42.1 °F 50% 29.86 in 10.0 mi WSW 3.5 mph - 0.00 in   Mostly Cloudy
6:56 PM 63.0 °F - 42.1 °F 46% 29.84 in 10.0 mi NNE 9.2 mph - N/A   Clear
7:56 PM 64.0 °F - 41.0 °F 43% 29.82 in 10.0 mi Variable 5.8 mph - N/A   Clear
8:56 PM 64.0 °F - 37.0 °F 37% 29.83 in 10.0 mi North 4.6 mph - N/A   Clear
9:56 PM 55.9 °F - 41.0 °F 57% 29.84 in 10.0 mi WNW 3.5 mph - N/A   Clear
10:56 PM 53.1 °F - 42.1 °F 66% 29.86 in 10.0 mi Calm Calm - N/A   Clear
11:56 PM 51.1 °F - 42.1 °F 71% 29.87 in 10.0 mi West 3.5 mph - N/A   Clear